Weather History for Pittsfield, IL

Change the Weather History Date:

Saturday, April 5, 2014

  Actual Average (KUIN) Record (KUIN)
Temperature  
Mean Temperature 44 °F 50 °F  
Max Temperature 54 °F 60 °F 84 °F (1942)
Min Temperature 34 °F 39 °F 15 °F (1929)
Degree Days  
Heating Degree Days 22 16  
Month to date heating degree days 82  
Since 1 July heating degree days 5142  
Cooling Degree Days 0 0  
Month to date cooling degree days 0  
Year to date cooling degree days 2  
Moisture  
Dew Point 31 °F    
Average Humidity 60    
Maximum Humidity 79    
Minimum Humidity 43    
Precipitation  
Precipitation 0.00 in 0.11 in 2.78 in (1964)
Month to date precipitation 0.54  
Year to date precipitation 6.40  
Sea Level Pressure  
Sea Level Pressure 30.18 in    
Wind  
Wind Speed 4 mph (ESE)    
Max Wind Speed 7 mph    
Max Gust Speed -    
Visibility 10 miles    
Events      
T = Trace of Precipitation, MM = Missing Value Source: NWS Daily Summary

Daily Weather History Graph

Daily Weather History Graph

Search for Another Location

Airport:

Trip Planner

Search our weather history database for the weather conditions in past years. The results will help you decide how hot, cold, wet, or windy it might be!

Date:

Astronomy

Apr. 05, 2014 Rise Set
Actual Time 6:40 AM CDT 7:31 PM CDT
Civil Twilight 6:13 AM CDT 7:58 PM CDT
Nautical Twilight 5:41 AM CDT 8:31 PM CDT
Astronomical Twilight 5:07 AM CDT 9:04 PM CDT
Moon 10:49 AM CDT (4/5) 12:40 AM CDT (4/5)
Length of Visible Light 13h 44m
Length of Day
12h 50m
Waxing Crescent, 34% of the Moon is Illuminated
Apr 5
Waxing Crescent
Apr 7
First Quarter
Apr 15
Full
Apr 22
Last Quarter
Apr 29
New

Hourly Weather History & Observations

Time (CDT) Temp. Windchill Dew Point Humidity Pressure Visibility Wind Dir Wind Speed Gust Speed Precip Events Conditions
12:15 AM 40.5 °F 37.3 °F 31.5 °F 70% 30.15 in 10.0 mi NW 4.6 mph - N/A   Overcast
12:35 AM 40.3 °F 37.1 °F 31.3 °F 70% 30.15 in 10.0 mi NW 4.6 mph - N/A   Overcast
12:55 AM 40.5 °F 35.8 °F 30.4 °F 67% 30.15 in 10.0 mi NW 6.9 mph - N/A   Overcast
1:15 AM 40.3 °F 35.5 °F 30.4 °F 68% 30.16 in 10.0 mi NW 6.9 mph - N/A   Overcast
1:35 AM 40.3 °F 36.3 °F 28.8 °F 63% 30.16 in 10.0 mi WNW 5.8 mph - N/A   Overcast
1:55 AM 39.7 °F 35.6 °F 28.8 °F 65% 30.16 in 10.0 mi WNW 5.8 mph - N/A   Overcast
2:15 AM 39.6 °F 36.3 °F 29.1 °F 66% 30.17 in 10.0 mi West 4.6 mph - N/A   Overcast
2:35 AM 39.4 °F 37.2 °F 28.6 °F 65% 30.17 in 10.0 mi NW 3.5 mph - N/A   Overcast
2:55 AM 38.8 °F 36.5 °F 28.6 °F 67% 30.17 in 10.0 mi NW 3.5 mph - N/A   Overcast
3:15 AM 38.8 °F 36.5 °F 28.8 °F 67% 30.18 in 10.0 mi West 3.5 mph - N/A   Overcast
3:35 AM 38.7 °F - 28.6 °F 67% 30.18 in 10.0 mi Calm Calm - N/A   Overcast
3:55 AM 38.8 °F 36.5 °F 28.0 °F 65% 30.18 in 10.0 mi West 3.5 mph - N/A   Overcast
4:15 AM 38.3 °F 35.9 °F 28.4 °F 68% 30.18 in 10.0 mi West 3.5 mph - N/A   Overcast
4:35 AM 39.0 °F 35.7 °F 27.9 °F 64% 30.18 in 10.0 mi WNW 4.6 mph - N/A   Overcast
4:55 AM 38.3 °F 35.9 °F 28.4 °F 68% 30.18 in 10.0 mi WNW 3.5 mph - N/A   Overcast
5:15 AM 38.3 °F 35.9 °F 28.6 °F 68% 30.18 in 10.0 mi WNW 3.5 mph - N/A   Overcast
5:35 AM 37.0 °F - 30.2 °F 76% 30.18 in 10.0 mi Calm Calm - N/A   Overcast
5:55 AM 37.0 °F - 29.3 °F 74% 30.19 in 10.0 mi Calm Calm - N/A   Overcast
6:15 AM 36.7 °F - 29.1 °F 74% 30.19 in 10.0 mi Calm Calm - N/A   Overcast
6:35 AM 36.0 °F - 28.8 °F 75% 30.19 in 10.0 mi Calm Calm - N/A   Mostly Cloudy
6:55 AM 34.7 °F - 28.9 °F 79% 30.20 in 10.0 mi Calm Calm - N/A   Clear
7:15 AM 34.3 °F 31.4 °F 28.4 °F 79% 30.21 in 10.0 mi WNW 3.5 mph - N/A   Clear
7:35 AM 35.4 °F - 28.4 °F 76% 30.21 in 10.0 mi Calm Calm - N/A   Clear
7:55 AM 36.7 °F - 29.5 °F 75% 30.21 in 10.0 mi Calm Calm - N/A   Clear
8:15 AM 37.6 °F 34.0 °F 29.5 °F 73% 30.22 in 10.0 mi WNW 4.6 mph - N/A   Clear
8:35 AM 39.2 °F - 30.0 °F 70% 30.23 in 10.0 mi Calm Calm - N/A   Clear
8:55 AM 40.1 °F 38.0 °F 28.6 °F 63% 30.23 in 10.0 mi North 3.5 mph - N/A   Clear
9:15 AM 41.0 °F 38.0 °F 27.7 °F 59% 30.23 in 10.0 mi ENE 4.6 mph - N/A   Clear
9:35 AM 41.9 °F - 27.9 °F 58% 30.24 in 10.0 mi Calm Calm - N/A   Clear
9:55 AM 42.8 °F 39.3 °F 28.8 °F 58% 30.24 in 10.0 mi NNE 5.8 mph - N/A   Clear
10:15 AM 43.5 °F 41.9 °F 29.1 °F 57% 30.25 in 10.0 mi NE 3.5 mph - N/A   Clear
10:35 AM 44.4 °F 42.9 °F 30.4 °F 58% 30.25 in 10.0 mi ESE 3.5 mph - N/A   Clear
10:55 AM 43.9 °F 41.3 °F 28.6 °F 55% 30.25 in 10.0 mi ESE 4.6 mph - N/A   Clear
11:15 AM 45.1 °F - 28.8 °F 53% 30.25 in 10.0 mi Calm Calm - N/A   Clear
11:35 AM 45.0 °F 43.5 °F 28.9 °F 53% 30.25 in 10.0 mi NW 3.5 mph - N/A   Clear
11:55 AM 45.5 °F 42.5 °F 28.9 °F 52% 30.24 in 10.0 mi West 5.8 mph - N/A   Clear
12:15 PM 46.8 °F - 30.4 °F 53% 30.24 in 10.0 mi Calm Calm - N/A   Clear
12:35 PM 47.7 °F - 31.3 °F 53% 30.23 in 10.0 mi ESE 3.5 mph - N/A   Clear
12:55 PM 47.7 °F - 30.4 °F 51% 30.23 in 10.0 mi Calm Calm - N/A   Clear
1:15 PM 49.5 °F - 33.3 °F 54% 30.21 in 10.0 mi SSE 5.8 mph - N/A   Clear
1:35 PM 49.3 °F - 30.6 °F 49% 30.21 in 10.0 mi Calm Calm - N/A   Clear
1:55 PM 49.1 °F - 30.0 °F 48% 30.20 in 10.0 mi Calm Calm - N/A   Clear
2:15 PM 50.9 °F - 32.4 °F 49% 30.19 in 10.0 mi SE 4.6 mph - N/A   Clear
2:35 PM 50.0 °F - 29.8 °F 46% 30.19 in 10.0 mi Calm Calm - N/A   Clear
2:55 PM 51.1 °F - 29.7 °F 44% 30.18 in 10.0 mi Calm Calm - N/A   Clear
3:15 PM 51.3 °F - 29.8 °F 44% 30.17 in 10.0 mi Calm Calm - N/A   Clear
3:35 PM 52.9 °F - 32.4 °F 46% 30.16 in 10.0 mi WSW 3.5 mph - N/A   Clear
3:55 PM 53.1 °F - 32.2 °F 45% 30.16 in 10.0 mi Calm Calm - N/A   Clear
4:15 PM 52.7 °F - 31.5 °F 44% 30.16 in 10.0 mi SSW 3.5 mph - N/A   Clear
4:35 PM 53.6 °F - 32.7 °F 45% 30.15 in 10.0 mi East 5.8 mph - N/A   Clear
4:55 PM 53.2 °F - 31.1 °F 43% 30.15 in 10.0 mi East 3.5 mph - N/A   Clear
5:15 PM 53.6 °F - 32.4 °F 44% 30.14 in 10.0 mi East 5.8 mph - N/A   Clear
5:35 PM 53.2 °F - 31.5 °F 43% 30.14 in 10.0 mi South 3.5 mph - N/A   Clear
5:55 PM 53.2 °F - 32.2 °F 45% 30.14 in 10.0 mi ESE 4.6 mph - N/A   Clear
6:15 PM 53.6 °F - 32.9 °F 45% 30.13 in 10.0 mi East 5.8 mph - N/A   Clear
6:35 PM 52.9 °F - 32.9 °F 47% 30.13 in 10.0 mi ESE 4.6 mph - N/A   Clear
6:55 PM 51.8 °F - 33.1 °F 49% 30.13 in 10.0 mi East 6.9 mph - N/A   Clear
7:15 PM 50.7 °F - 33.8 °F 52% 30.13 in 10.0 mi East 6.9 mph - N/A   Clear
7:35 PM 48.9 °F - 34.3 °F 57% 30.13 in 10.0 mi ESE 6.9 mph - N/A   Clear
7:55 PM 48.2 °F - 34.7 °F 60% 30.13 in 10.0 mi ESE 6.9 mph - N/A   Clear
8:15 PM 46.9 °F - 33.6 °F 60% 30.14 in 10.0 mi ESE 4.6 mph - N/A   Clear
8:35 PM 46.2 °F 43.3 °F 33.8 °F 62% 30.14 in 10.0 mi ESE 5.8 mph - N/A   Clear
8:55 PM 45.9 °F 42.9 °F 34.0 °F 63% 30.14 in 10.0 mi ESE 5.8 mph - N/A   Clear
9:15 PM 45.3 °F 42.3 °F 34.9 °F 67% 30.14 in 10.0 mi ESE 5.8 mph - N/A   Clear
9:35 PM 45.1 °F 42.0 °F 34.7 °F 67% 30.15 in 10.0 mi ESE 5.8 mph - N/A   Clear
9:55 PM 44.8 °F 41.6 °F 34.7 °F 68% 30.15 in 10.0 mi SE 5.8 mph - N/A   Clear
10:15 PM 44.1 °F 40.8 °F 34.3 °F 69% 30.15 in 10.0 mi SE 5.8 mph - N/A   Clear
10:35 PM 43.7 °F 40.3 °F 34.3 °F 70% 30.15 in 10.0 mi SE 5.8 mph - N/A   Clear
10:55 PM 42.8 °F 39.3 °F 33.8 °F 70% 30.15 in 10.0 mi SE 5.8 mph - N/A   Clear
11:15 PM 42.8 °F 39.3 °F 34.3 °F 72% 30.15 in 10.0 mi SE 5.8 mph - N/A   Clear
11:35 PM 42.4 °F 39.6 °F 33.6 °F 71% 30.14 in 10.0 mi ESE 4.6 mph - N/A   Clear
11:55 PM 42.3 °F 38.6 °F 33.4 °F 71% 30.14 in 10.0 mi ESE 5.8 mph - N/A   Clear